Regional Weather Roundup
Issued by NWS Albany, NY

Current Version | Previous Version | Graphics & Text | Print | Product List | Glossary Off
Versions: 1 2 3 4 5 6 7 8 9 10 11 12 13 14 15 16 17 18 19 20 21 22 23 24 25 26 27 28 29 30 31 32 33 34 35 36 37 38 39 40 41 42 43 44 45 46 47 48 49 50

000
ASUS41 KALY 211810
RWRALY

NEW YORK STATE HOURLY WEATHER ROUNDUP
NATIONAL WEATHER SERVICE ALBANY NY
100 PM EST FRI NOV 21 2014

NOTE: "FAIR" INDICATES FEW OR NO CLOUDS BELOW 12,000 FEET WITH NO
SIGNIFICANT WEATHER AND/OR NO OBSTRUCTIONS TO VISIBILITY.

NYZ032-033-038>043-046>054-057>066-NYZ062>081-211900-
EAST


CITY           SKY/WX    TMP DP  RH WIND       PRES   REMARKS
ALBANY         PTSUNNY   30  12  47 NW21G28   30.26R WCI  17
GLENS FALLS    MOSUNNY   32   7  35 NW10      30.22R WCI  24
POUGHKEEPSIE   CLOUDY    34  11  38 NW12      30.27R WCI  25
MONTGOMERY     CLOUDY    32  10  40 NW17G24   30.28R WCI  21
WHITE PLAINS   MOSUNNY   33  10  38 NW18G29   30.25R WCI  22
ISLIP          MOSUNNY   36  12  37 W22G31    30.24R WCI  25
NEW YORK CITY  MOSUNNY   35  14  42 NW25      30.29R WCI  23
CENTRAL PARK   MOSUNNY   35   8  32 NW10G21   30.31R WCI  27
$$

NYZ005>009-017-018-044>046-055-056-211900-
CENTRAL


CITY           SKY/WX    TMP DP  RH WIND       PRES   REMARKS
FULTON         CLOUDY    27  15  61 NW12      30.34R WCI  17
SYRACUSE       FLURRIES  29  14  53 NW14      30.34R WCI  18
ROME           PTSUNNY   25  15  66 W15       30.33R WCI  13
ELMIRA         CLOUDY    29  14  53 W13       30.34R WCI  19
BINGHAMTON     PTSUNNY   23  15  71 NW14G24   30.26R WCI  11
MONTICELLO     CLOUDY    28  14  54 NW13      30.23R WCI  18
$$

NYZ026>034-041>043-211900-
NORTH


CITY           SKY/WX    TMP DP  RH WIND       PRES   REMARKS
WATERTOWN      SUNNY     26  10  50 W9        30.33R WCI  17
FORT DRUM      NOT AVBL
MASSENA        SUNNY     22   6  50 W12       30.29S WCI  10
SARANAC LAKE   MOSUNNY   17   5  59 VRB7G22   30.14R WCI   8
PLATTSBURGH    SUNNY     27   3  35 NW14G23   30.22R WCI  16
$$

NYZ001>004-010>016-019>021-211900-
WEST


CITY           SKY/WX    TMP DP  RH WIND       PRES   REMARKS
NIAGARA FALLS  MOSUNNY   25  13  60 W12       30.38R WCI  14
BUFFALO        MOSUNNY   26  12  55 SW10      30.38R WCI  16
DUNKIRK        HVY SNOW  25  23  92 W6        30.40R VSB 1/4 WCI  18
JAMESTOWN      CLOUDY    19  16  86 SW9       30.33S WCI   9
WELLSVILLE     PTSUNNY   23  12  62 W10       30.29R WCI  12
ROCHESTER      PTSUNNY   29  14  53 W14       30.37R WCI  18
PENN YAN       SUNNY     28  12  51 NW12G18   30.34R WCI  18
$$

             KEY
       WCI = WIND CHILL INDEX
       VSB = VISIBILITY
       HX  = HEAT INDEX
$$



USA.gov is the U.S. government's official web portal to all federal, state and local government web resources and services.